GW0378 Weather Reports


time (UTC)temp
C
wind
direction
speed
KPH
gust
KPH
rain 1hr
cm
rain 24hr
cm
rain mn
cm
humidity
%
barometer
mb
20260905045015 10 107 6.4 9.7 0.00 0.51 0.51 91 1017.8
20260905044515 10 111 8.0 12.9 0.00 0.51 0.51 91 1017.7
20260905044015 10 112 3.2 8.0 0.00 0.51 0.51 91 1017.9
20260905043513 10 117 4.8 14.5 0.00 0.51 0.51 91 1017.7
20260905043004 10 103 4.8 12.9 0.00 0.51 0.51 91 1017.7
20260905042502 10 83 4.8 6.4 0.00 0.51 0.51 92 1017.7
20260905041958 11 90 3.2 4.8 0.00 0.51 0.51 91 1017.7
20260905041454 11 172 0.0 3.2 0.00 0.51 0.51 90 1017.5
20260905040949 11 105 1.6 3.2 0.00 0.51 0.51 87 1017.4
20260905040448 11 270 0.0 3.2 0.00 0.51 0.51 87 1017.2
20260905035947 11 152 0.0 9.7 0.00 0.51 0.51 88 1017.2
20260905035442 11 103 6.4 14.5 0.00 0.51 0.51 88 1017.4
20260905034940 11 102 6.4 20.9 0.00 0.51 0.51 90 1017.5
20260905034435 11 180 0.0 4.8 0.00 0.51 0.51 91 1017.5
20260905033933 11 41 3.2 4.8 0.00 0.51 0.51 91 1017.8
20260905033428 11 142 0.0 4.8 0.00 0.51 0.51 92 1018.0
20260905032928 11 131 8.0 9.7 0.00 0.51 0.51 92 1017.7
20260905032424 11 131 8.0 16.1 0.00 0.51 0.51 93 1017.6
20260905031919 11 118 11.3 20.9 0.00 0.51 0.51 92 1017.7
20260905031415 11 118 9.7 16.1 0.00 0.51 0.51 92 1017.7
20260905030909 11 116 14.5 19.3 0.00 0.51 0.51 93 1017.7
20260905030400 11 113 11.3 20.9 0.00 0.51 0.51 93 1017.6
20260905025858 11 110 9.7 14.5 0.00 0.51 0.51 93 1017.7
20260905025354 11 115 16.1 19.3 0.00 0.51 0.51 94 1018.1
20260905024850 11 111 11.3 16.1 0.00 0.51 0.51 94 1018.0
20260905024350 11 115 12.9 19.3 0.05 0.51 0.51 94 1018.2
20260905023846 11 126 8.0 16.1 0.05 0.51 0.51 93 1018.0
20260905023341 11 114 11.3 20.9 0.05 0.51 0.51 93 1018.0
20260905022839 11 127 6.4 19.3 0.13 0.51 0.51 92 1017.9
20260905022336 11 127 12.9 19.3 0.05 0.51 0.51 91 1017.8
20260905021830 11 103 9.7 19.3 0.05 0.48 0.48 91 1017.8
20260905021325 11 125 8.0 11.3 0.05 0.48 0.48 92 1017.8
20260905020820 11 128 6.4 12.9 0.00 0.48 0.48 91 1017.9
20260905020315 11 122 8.0 16.1 0.00 0.48 0.48 91 1017.6
20260905015814 12 109 6.4 6.4 0.00 0.48 0.48 91 1017.8
20260905015314 12 82 0.0 1.6 0.00 0.48 0.48 90 1017.7
20260905014813 12 116 6.4 8.0 0.00 0.48 0.48 90 1017.2
20260905014309 12 112 8.0 8.0 0.00 0.48 0.48 92 1017.2
20260905013804 12 95 3.2 3.2 0.00 0.48 0.48 91 1017.1
20260905013300 12 90 1.6 1.6 0.00 0.48 0.48 91 1017.0
20260905012755 12 99 0.0 1.6 0.05 0.48 0.48 90 1016.8
20260905012251 12 99 0.0 3.2 0.18 0.48 0.48 89 1016.6
20260905011747 12 124 3.2 4.8 0.43 0.46 0.46 86 1016.5
20260905011243 13 61 6.4 6.4 0.48 0.46 0.46 82 1016.5
20260905010737 13 315 3.2 9.7 0.43 0.41 0.41 79 1017.1
20260905010232 15 246 16.1 17.7 0.36 0.36 0.36 72 1017.5
20260905005729 16 260 11.3 14.5 0.13 0.33 0.33 62 1016.9
20260905005225 16 256 8.0 16.1 0.00 0.30 0.30 56 1016.1
20260905004719 16 250 6.4 11.3 0.00 0.30 0.30 55 1015.7
20260905004214 16 323 8.0 9.7 0.00 0.30 0.30 53 1015.4
20260905003714 16 292 4.8 9.7 0.00 0.30 0.30 54 1015.0
20260905003210 17 266 4.8 11.3 0.00 0.30 0.30 53 1014.9
20260905002706 17 291 0.0 9.7 0.00 0.30 0.30 53 1014.9
20260905002205 17 315 4.8 9.7 0.00 0.30 0.30 52 1015.0
20260905001701 17 294 0.0 9.7 0.00 0.30 0.30 54 1015.4
20260905001200 17 287 4.8 12.9 0.00 0.30 0.30 53 1015.0
20260905000655 17 253 6.4 11.3 0.00 0.30 0.30 53 1014.9
20260905000151 17 296 4.8 14.5 0.00 0.30 0.30 53 1014.9
20260904235651 17 263 8.0 17.7 0.00 0.30 0.30 52 1014.9
20260904235150 17 268 14.5 22.5 0.00 0.30 0.30 52 1014.8
20260904234646 17 323 3.2 16.1 0.00 0.30 0.30 52 1014.9
20260904234141 17 275 3.2 12.9 0.00 0.30 0.30 50 1015.1
20260904233637 17 303 4.8 12.9 0.00 0.30 0.30 51 1014.8
20260904233133 17 282 8.0 19.3 0.00 0.30 0.30 50 1014.6
20260904232629 18 281 6.4 14.5 0.00 0.30 0.30 50 1014.9
20260904232125 18 347 4.8 9.7 0.00 0.30 0.30 48 1014.6
20260904231620 18 334 4.8 11.3 0.00 0.30 0.30 47 1014.6
20260904231115 20 257 3.2 6.4 0.00 0.30 0.30 48 1014.5
20260904230614 19 254 4.8 17.7 0.00 0.30 0.30 47 1014.6
20260904230110 19 261 6.4 14.5 0.00 0.30 0.30 48 1014.6
20260904225607 19 275 0.0 11.3 0.00 0.30 0.30 48 1014.6
20260904225103 18 270 0.0 16.1 0.00 0.30 0.30 49 1014.6
20260904224557 18 274 8.0 9.7 0.00 0.30 0.30 50 1014.8
20260904224052 18 280 8.0 9.7 0.00 0.30 0.30 50 1014.5
20260904223551 18 20 4.8 6.4 0.00 0.30 0.30 50 1015.1
20260904223047 18 262 8.0 9.7 0.00 0.30 0.30 49 1014.9
20260904222543 18 291 8.0 12.9 0.00 0.30 0.30 51 1014.6
20260904222038 17 278 6.4 17.7 0.00 0.30 0.30 52 1014.8
20260904221532 17 270 4.8 16.1 0.00 0.30 0.30 52 1014.7
20260904221027 17 301 6.4 19.3 0.00 0.30 0.30 53 1014.7
20260904220526 18 298 9.7 17.7 0.00 0.30 0.30 51 1014.5
20260904220023 18 328 3.2 6.4 0.00 0.30 0.30 50 1014.1
20260904215522 18 227 4.8 16.1 0.00 0.30 0.30 51 1014.6
20260904215018 18 279 6.4 20.9 0.00 0.30 0.30 51 1014.6
20260904214513 18 279 4.8 8.0 0.00 0.30 0.30 50 1014.5
20260904214009 18 285 8.0 14.5 0.00 0.30 0.30 50 1014.4
20260904213506 18 310 6.4 11.3 0.00 0.30 0.30 51 1014.2
20260904213004 18 324 4.8 8.0 0.00 0.30 0.30 53 1014.5
20260904212502 18 311 3.2 12.9 0.00 0.30 0.30 51 1014.7
20260904211958 18 331 8.0 11.3 0.00 0.30 0.30 53 1014.6
20260904211452 17 274 8.0 17.7 0.00 0.30 0.30 55 1014.5
20260904210948 18 270 6.4 12.9 0.00 0.30 0.30 53 1014.6
20260904210447 18 335 9.7 12.9 0.00 0.30 0.30 53 1014.6
20260904205943 18 272 8.0 11.3 0.00 0.30 0.30 53 1014.8
20260904205438 18 281 9.7 14.5 0.00 0.30 0.30 53 1014.7
20260904204935 18 270 8.0 9.7 0.00 0.30 0.30 56 1014.8
20260904204431 18 0 4.8 6.4 0.00 0.30 0.30 54 1014.8
20260904203927 18 329 4.8 8.0 0.00 0.30 0.30 55 1014.8
20260904203423 17 180 0.0 8.0 0.00 0.30 0.30 55 1014.9
20260904202918 17 349 8.0 9.7 0.00 0.30 0.30 56 1014.9
20260904202414 16 293 4.8 8.0 0.00 0.30 0.30 57 1014.9
20260904201910 17 4 3.2 8.0 0.00 0.30 0.30 56 1014.9
20260904201405 17 5 4.8 6.4 0.00 0.30 0.30 56 1014.9
20260904200901 17 143 3.2 8.0 0.00 0.30 0.30 57 1014.8
20260904200359 17 321 4.8 8.0 0.00 0.30 0.30 58 1015.0
20260904195854 17 290 3.2 8.0 0.00 0.30 0.30 58 1015.1
20260904195352 17 255 4.8 9.7 0.00 0.30 0.30 62 1015.2
20260904194847 17 261 0.0 8.0 0.00 0.30 0.30 58 1015.0
20260904194346 16 254 1.6 8.0 0.00 0.30 0.30 62 1014.8
20260904193841 16 319 6.4 14.5 0.00 0.30 0.30 60 1014.9
20260904193337 16 337 8.0 9.7 0.00 0.30 0.30 61 1015.1
20260904192832 16 6 4.8 9.7 0.00 0.30 0.30 65 1015.1
20260904192327 17 73 11.3 11.3 0.00 0.30 0.30 63 1015.1
20260904191824 16 297 0.0 9.7 0.00 0.30 0.30 61 1015.1
20260904191320 16 140 0.0 8.0 0.00 0.30 0.30 62 1015.4
20260904190817 15 327 3.2 8.0 0.00 0.30 0.30 65 1015.4
20260904190312 16 210 0.0 9.7 0.00 0.30 0.30 62 1015.2
20260904185808 16 294 4.8 6.4 0.00 0.30 0.30 66 1015.5
20260904185306 15 349 3.2 6.4 0.00 0.30 0.30 65 1015.5
20260904184803 15 334 3.2 3.2 0.00 0.30 0.30 67 1015.4
20260904184258 15 348 6.4 6.4 0.00 0.30 0.30 70 1015.6
20260904183753 15 74 1.6 4.8 0.00 0.30 0.30 69 1015.4
20260904183248 15 8 3.2 9.7 0.00 0.30 0.30 68 1015.6
20260904182743 15 0 6.4 8.0 0.00 0.30 0.30 67 1015.4
20260904182238 15 266 4.8 6.4 0.00 0.30 0.30 66 1015.2
20260904181734 16 305 4.8 8.0 0.00 0.30 0.30 67 1015.5
20260904181233 15 54 0.0 6.4 0.00 0.30 0.30 66 1015.4
20260904180729 15 300 3.2 6.4 0.00 0.30 0.30 68 1015.4
20260904180224 14 270 3.2 4.8 0.00 0.30 0.30 70 1015.7
20260904175723 14 315 3.2 8.0 0.00 0.30 0.30 69 1015.5
20260904175222 13 0 1.6 4.8 0.00 0.30 0.30 70 1015.5
20260904174717 13 281 3.2 6.4 0.00 0.30 0.30 74 1015.7
20260904174213 13 264 3.2 6.4 0.00 0.30 0.30 75 1015.5
20260904173708 14 329 6.4 8.0 0.00 0.30 0.30 74 1015.5
20260904173203 13 285 3.2 4.8 0.00 0.30 0.30 75 1015.5
20260904172700 13 15 3.2 6.4 0.00 0.30 0.30 77 1015.6
20260904172159 13 279 4.8 8.0 0.00 0.30 0.30 77 1015.5
20260904171655 13 254 0.0 6.4 0.00 0.30 0.30 80 1015.7
20260904171154 13 198 0.0 3.2 0.00 0.30 0.30 79 1015.2
20260904170651 13 3 4.8 4.8 0.00 0.30 0.30 79 1015.5
20260904170147 13 154 1.6 3.2 0.00 0.30 0.30 83 1015.4
20260904165645 12 45 4.8 4.8 0.00 0.30 0.30 84 1015.4
20260904165144 12 258 1.6 4.8 0.00 0.30 0.30 82 1015.5
20260904164640 12 90 0.0 4.8 0.00 0.30 0.30 84 1015.2
20260904164135 12 282 4.8 6.4 0.00 0.30 0.30 83 1015.2
20260904163631 12 45 0.0 6.4 0.00 0.30 0.30 85 1015.0
20260904163126 12 60 1.6 6.4 0.00 0.30 0.30 85 1014.9
20260904162625 11 127 0.0 4.8 0.00 0.30 0.30 88 1014.9
20260904162120 11 29 0.0 4.8 0.00 0.30 0.30 89 1014.9
20260904161616 11 8 0.0 3.2 0.00 0.30 0.30 90 1014.9
20260904161111 11 36 3.2 4.8 0.00 0.30 0.30 90 1014.7
20260904160606 10 26 3.2 3.2 0.00 0.30 0.30 89 1014.9
20260904155602 10 15 3.2 4.8 0.00 0.30 0.30 91 1014.8
20260904155056 10 63 3.2 3.2 0.00 0.30 0.30 91 1014.7
20260904154550 10 24 3.2 4.8 0.00 0.30 0.30 92 1014.8
20260904154045 10 99 3.2 4.8 0.00 0.30 0.30 92 1014.8
20260904153544 10 203 0.0 1.6 0.00 0.30 0.30 92 1014.7
20260904153041 10 206 0.0 4.8 0.00 0.30 0.30 93 1014.8
20260904152536 10 246 0.0 3.2 0.00 0.30 0.30 93 1014.4
20260904152031 10 331 0.0 8.0 0.00 0.30 0.30 93 1014.2
20260904151521 10 322 0.0 6.4 0.00 0.30 0.30 95 1014.2
20260904151021 10 286 4.8 6.4 0.00 0.30 0.30 95 1014.5
20260904150520 10 281 9.7 9.7 0.00 0.30 0.30 96 1014.2
20260904150015 10 298 4.8 6.4 0.00 0.30 0.30 96 1014.4
20260904145509 10 260 0.0 6.4 0.00 0.30 0.30 96 1014.2
20260904145005 10 244 4.8 8.0 0.00 0.30 0.30 96 1014.2
20260904144501 10 210 3.2 6.4 0.00 0.30 0.30 96 1013.9
20260904143956 10 180 0.0 3.2 0.00 0.30 0.30 96 1013.8
20260904143452 10 180 0.0 3.2 0.00 0.30 0.30 96 1013.5
20260904142949 10 166 0.0 1.6 0.00 0.30 0.30 96 1013.5
20260904142445 10 221 0.0 4.8 0.00 0.30 0.30 96 1013.2
20260904141944 10 73 3.2 4.8 0.00 0.30 0.30 96 1013.5
20260904141439 10 332 3.2 4.8 0.00 0.30 0.30 96 1013.5
20260904140936 9 15 0.0 0.0 0.00 0.30 0.30 96 1013.5
20260904140435 9 66 0.0 3.2 0.00 0.30 0.30 96 1013.1
20260904135935 9 90 1.6 4.8 0.00 0.30 0.30 95 1013.1
20260904135434 9 56 3.2 4.8 0.00 0.30 0.30 95 1012.9
20260904134931 9 8 0.0 3.2 0.00 0.30 0.30 95 1013.1
20260904134430 9 98 1.6 3.2 0.05 0.30 0.30 95 1013.2
20260904133925 9 101 4.8 6.4 0.05 0.30 0.30 95 1013.1
20260904133420 9 90 3.2 3.2 0.23 0.28 0.28 94 1013.1
20260904132916 9 98 3.2 4.8 0.30 0.28 0.28 94 1013.0
20260904132410 9 90 1.6 3.2 0.30 0.25 0.25 94 1013.0
20260904131910 10 114 1.6 3.2 0.30 0.23 0.23 93 1013.1
20260904131400 9 85 3.2 3.2 0.30 0.20 0.20 93 1012.9
20260904130855 10 90 3.2 3.2 0.43 0.18 0.18 92 1013.0
20260904130354 10 23 0.0 3.2 0.43 0.15 0.15 92 1012.9
20260904125849 10 183 0.0 6.4 0.36 0.10 0.10 92 1012.8
20260904125346 10 270 0.0 3.2 0.23 0.08 0.08 91 1012.9
20260904124844 10 260 3.2 4.8 0.05 0.05 0.05 90 1012.9
20260904124342 10 243 4.8 4.8 0.00 0.05 0.05 90 1012.7
20260904123836 10 168 3.2 4.8 0.00 0.05 0.05 90 1012.8
20260904123331 10 114 0.0 3.2 0.00 0.05 0.05 90 1012.7
20260904122826 10 240 0.0 4.8 0.00 0.05 0.05 90 1012.9
20260904122321 10 324 0.0 3.2 0.00 0.05 0.05 90 1012.6
20260904121816 10 165 0.0 1.6 0.00 0.05 0.05 90 1012.5
20260904121312 10 180 3.2 4.8 0.05 0.05 0.05 89 1012.6
20260904120809 10 305 3.2 6.4 0.05 0.05 0.05 89 1012.4
20260904120303 10 60 0.0 4.8 0.00 0.03 0.03 88 1012.3
20260904115759 10 331 0.0 4.8 0.00 0.03 0.03 88 1012.5
20260904115254 10 306 6.4 6.4 0.00 0.03 0.03 87 1012.1
20260904114748 10 240 0.0 4.8 0.00 0.03 0.03 88 1012.1
20260904114248 10 243 1.6 4.8 0.00 0.03 0.03 89 1012.3
20260904113743 10 198 4.8 4.8 0.00 0.03 0.03 89 1012.0
20260904113242 10 90 0.0 4.8 0.00 0.03 0.03 88 1012.0
20260904112737 10 186 0.0 3.2 0.00 0.03 0.03 87 1011.9
20260904112233 10 85 3.2 4.8 0.00 0.03 0.03 87 1011.5
20260904111729 10 82 4.8 6.4 0.00 0.03 0.03 88 1011.7
20260904111224 10 94 3.2 3.2 0.00 0.03 0.03 87 1011.7
20260904110720 11 7 0.0 4.8 0.00 0.03 0.03 85 1011.6
20260904110219 10 274 8.0 16.1 0.00 0.03 0.03 86 1011.4
20260904105714 10 20 0.0 4.8 0.00 0.03 0.03 91 1011.6
20260904105209 10 72 3.2 4.8 0.00 0.03 0.03 90 1011.6
20260904104704 10 105 4.8 4.8 0.00 0.03 0.03 89 1011.3
20260904104200 10 57 1.6 3.2 0.05 0.03 0.03 89 1011.3
20260904103656 10 69 1.6 1.6 0.05 0.03 0.03 90 1011.1
20260904103151 10 90 1.6 3.2 0.05 0.03 0.03 90 1011.0
20260904102647 10 139 3.2 3.2 0.05 0.03 0.03 90 1010.8
20260904102142 10 21 3.2 8.0 0.05 0.00 0.00 89 1010.7
20260904101639 10 139 3.2 4.8 0.05 0.00 0.00 87 1010.4
20260904101134 10 115 3.2 4.8 0.00 0.00 0.00 86 1010.4
20260904100630 10 335 4.8 8.0 0.00 0.00 0.00 87 1010.5
20260904100125 10 6 0.0 3.2 0.00 0.00 0.00 88 1010.9
20260904095619 10 107 4.8 4.8 0.00 0.00 0.00 88 1010.4
20260904095114 10 109 1.6 1.6 0.00 0.00 0.00 88 1009.7
20260904094609 10 82 0.0 3.2 0.00 0.00 0.00 87 1009.4
20260904094104 10 110 3.2 4.8 0.00 0.00 0.00 87 1009.0
20260904093601 10 94 4.8 4.8 0.00 0.00 0.00 87 1009.1
20260904093101 10 72 3.2 4.8 0.00 0.00 0.00 88 1008.7
20260904092557 10 74 1.6 3.2 0.00 0.00 0.00 88 1008.7
20260904092053 10 82 3.2 4.8 0.00 0.00 0.00 88 1008.5
20260904091549 10 154 0.0 3.2 0.00 0.00 0.00 88 1008.6
20260904091048 10 99 3.2 3.2 0.00 0.00 0.00 87 1008.1
20260904090544 10 81 3.2 4.8 0.00 0.00 0.00 86 1007.9
20260904090039 10 90 3.2 4.8 0.00 0.00 0.00 86 1007.8
20260904085534 10 90 3.2 3.2 0.00 0.00 0.00 86 1007.9
20260904085034 10 98 1.6 4.8 0.00 0.00 0.00 87 1007.7
20260904084530 10 90 3.2 4.8 0.00 0.00 0.00 87 1008.1
20260904084026 10 90 3.2 4.8 0.00 0.00 0.00 87 1007.9
20260904083522 10 105 1.6 4.8 0.00 0.00 0.00 87 1007.7
20260904083017 10 100 3.2 3.2 0.00 0.00 0.00 87 1007.8
20260904082512 10 90 3.2 4.8 0.00 0.00 0.00 86 1007.8
20260904082007 10 105 3.2 4.8 0.00 0.00 0.00 86 1007.4
20260904081503 10 85 3.2 3.2 0.00 0.00 0.00 86 1007.6
20260904080958 10 106 1.6 1.6 0.00 0.00 0.00 86 1007.9
20260904080453 10 102 1.6 3.2 0.00 0.00 0.00 86 1007.8
20260904075949 10 84 3.2 3.2 0.00 0.00 0.00 86 1007.7
20260904075445 10 86 3.2 4.8 0.00 0.00 0.00 85 1007.7
20260904074944 10 111 0.0 4.8 0.00 0.00 0.00 85 1007.8
20260904074439 10 100 4.8 9.7 0.00 0.00 0.00 85 1007.8
20260904073934 10 115 3.2 11.3 0.00 0.00 0.00 86 1007.8
20260904073430 9 106 6.4 11.3 0.00 0.00 0.00 87 1007.7
20260904072925 9 90 4.8 6.4 0.00 0.00 0.00 88 1007.9
20260904072420 9 108 4.8 6.4 0.00 0.00 0.00 88 1007.9
20260904071916 9 104 4.8 6.4 0.00 0.00 0.00 87 1008.0
20260904071411 10 87 4.8 8.0 0.00 0.00 0.00 87 1008.1
20260904070906 10 112 4.8 8.0 0.00 0.00 0.00 86 1008.0
20260904070404 10 103 4.8 6.4 0.00 0.00 0.00 86 1007.9
20260904065905 10 93 6.4 9.7 0.00 0.00 0.00 87 1007.9
20260904065401 9 98 4.8 9.7 0.00 0.00 0.00 88 1007.8
20260904064900 9 111 1.6 4.8 0.00 0.00 0.00 87 1007.9
20260904064357 10 109 4.8 4.8 0.00 0.00 0.00 87 1008.1
20260904063852 10 87 4.8 6.4 0.00 0.00 0.00 87 1007.9
20260904063349 10 113 3.2 6.4 0.00 0.00 0.00 87 1007.7
20260904062843 10 94 3.2 4.8 0.00 0.00 0.00 87 1007.8
20260904062340 10 108 4.8 6.4 0.00 0.00 0.00 86 1007.8
20260904061835 10 85 6.4 8.0 0.00 0.00 0.00 86 1007.7
20260904061331 10 101 3.2 3.2 0.00 0.00 0.00 87 1007.9
20260904060827 10 101 3.2 4.8 0.00 0.00 0.00 87 1008.4
20260904060323 10 126 0.0 3.2 0.00 0.00 0.00 85 1007.8
20260904055818 10 103 6.4 6.4 0.00 0.20 0.20 86 1008.1
20260904055313 10 75 3.2 4.8 0.00 0.20 0.20 85 1008.0
20260904054803 10 95 3.2 4.8 0.00 0.20 0.20 85 1008.5
20260904054259 11 90 3.2 3.2 0.00 0.20 0.20 84 1008.3
20260904053754 11 86 4.8 4.8 0.00 0.20 0.20 83 1008.1
20260904053253 10 116 6.4 6.4 0.00 0.20 0.20 86 1008.5
20260904052750 10 98 3.2 3.2 0.00 0.20 0.20 86 1008.5
20260904052246 11 98 3.2 4.8 0.00 0.20 0.20 86 1008.7
20260904051742 11 103 3.2 4.8 0.00 0.20 0.20 85 1008.5
20260904051237 11 107 3.2 3.2 0.00 0.20 0.20 84 1008.6
20260904050732 11 90 0.0 0.0 0.00 0.20 0.20 84 1008.7
20260904050228 11 66 1.6 1.6 0.00 0.20 0.20 84 1008.6
20260904045723 11 90 3.2 3.2 0.00 0.20 0.20 82 1008.6